TimeHST,TemperatureF,Dew PointF,Humidity,Sea Level PressureIn,VisibilityMPH,Wind Direction,Wind SpeedMPH,Gust SpeedMPH,PrecipitationIn,Events,Conditions,WindDirDegrees,DateUTC
12:53 AM,75.9,64.9,69,30.04,10.0,ENE,12.7,-,N/A,,Mostly Cloudy,60,2011-11-21 10:53:00
1:53 AM,73.9,69.1,85,30.04,10.0,NE,8.1,-,0.00,Rain,Light Rain,50,2011-11-21 11:53:00
2:53 AM,75.0,66.9,76,30.02,10.0,NE,10.4,-,0.00,,Mostly Cloudy,50,2011-11-21 12:53:00
3:53 AM,75.0,64.9,71,30.01,10.0,ENE,8.1,-,N/A,,Scattered Clouds,70,2011-11-21 13:53:00
4:53 AM,75.9,64.0,67,30.01,10.0,ENE,8.1,-,N/A,,Scattered Clouds,70,2011-11-21 14:53:00
5:53 AM,75.9,64.0,67,30.03,10.0,ENE,11.5,-,N/A,,Partly Cloudy,70,2011-11-21 15:53:00
6:53 AM,75.9,64.0,67,30.05,10.0,ENE,12.7,-,N/A,,Scattered Clouds,70,2011-11-21 16:53:00
7:53 AM,77.0,64.9,66,30.06,10.0,ENE,16.1,20.7,N/A,,Scattered Clouds,70,2011-11-21 17:53:00
8:53 AM,78.1,64.0,62,30.09,10.0,ENE,11.5,19.6,N/A,,Scattered Clouds,60,2011-11-21 18:53:00
9:53 AM,79.0,64.0,60,30.10,10.0,ENE,13.8,-,N/A,,Scattered Clouds,70,2011-11-21 19:53:00
10:53 AM,81.0,64.9,58,30.09,10.0,ENE,13.8,-,N/A,,Scattered Clouds,60,2011-11-21 20:53:00
11:53 AM,82.9,64.0,53,30.07,10.0,ENE,17.3,-,N/A,,Scattered Clouds,60,2011-11-21 21:53:00
12:53 PM,84.0,64.0,51,30.05,10.0,NE,17.3,24.2,N/A,,Scattered Clouds,50,2011-11-21 22:53:00
1:53 PM,84.0,63.0,49,30.03,10.0,NE,20.7,24.2,N/A,,Scattered Clouds,50,2011-11-21 23:53:00
2:53 PM,82.9,64.0,53,30.02,10.0,ENE,18.4,31.1,N/A,,Scattered Clouds,70,2011-11-22 00:53:00
3:53 PM,81.0,64.0,56,30.02,10.0,ENE,19.6,27.6,N/A,,Scattered Clouds,60,2011-11-22 01:53:00
4:53 PM,80.1,64.9,60,30.03,10.0,NE,17.3,-,N/A,,Mostly Cloudy,50,2011-11-22 02:53:00
5:53 PM,78.1,64.0,62,30.06,10.0,NE,16.1,23.0,N/A,,Scattered Clouds,40,2011-11-22 03:53:00
6:53 PM,78.1,64.9,64,30.07,10.0,ENE,11.5,19.6,N/A,,Scattered Clouds,60,2011-11-22 04:53:00
7:53 PM,77.0,66.0,69,30.09,10.0,NE,15.0,21.9,N/A,,Scattered Clouds,50,2011-11-22 05:53:00
8:53 PM,77.0,66.0,69,30.11,10.0,NE,15.0,24.2,N/A,,Scattered Clouds,50,2011-11-22 06:53:00
9:53 PM,77.0,66.0,69,30.11,10.0,NE,19.6,26.5,N/A,,Scattered Clouds,50,2011-11-22 07:53:00
10:53 PM,75.9,66.9,74,30.11,10.0,NE,11.5,-,N/A,,Scattered Clouds,50,2011-11-22 08:53:00
11:53 PM,75.0,68.0,79,30.12,10.0,East,8.1,-,N/A,,Partly Cloudy,100,2011-11-22 09:53:00